This is the latest recevied weather packets stored in our database for station/object KA3WVU. If no packets are shown the sender has not sent any weather packets the latest 10 day(s).
| Time | Temp. | Humidity | Pressure | Rain* | Wind** | Luminosity | Snow |
|---|---|---|---|---|---|---|---|
| 1777554124 | 4.44° C | 99% | 1008.7 hPa | 0 mm | - | 53 W/m² | - |
| 1777553821 | 4.44° C | 99% | 1008.8 hPa | 0 mm | - | 44 W/m² | - |
| 1777553518 | 4.44° C | 99% | 1008.7 hPa | 0 mm | - | 30 W/m² | - |
| 1777553213 | 4.44° C | 99% | 1008.7 hPa | 0 mm | - | 41 W/m² | - |
| 1777552909 | 4.44° C | 99% | 1008.6 hPa | 0 mm | - | 38 W/m² | - |
| 1777552604 | 4.44° C | 99% | 1008.8 hPa | 0 mm | - | 36 W/m² | - |
| 1777552300 | 4.44° C | 99% | 1008.7 hPa | 0 mm | - | 33 W/m² | - |
| 1777551997 | 4.44° C | 99% | 1008.6 hPa | 0 mm | - | 27 W/m² | - |
| 1777551694 | 4.44° C | 99% | 1008.7 hPa | 0 mm | - | 31 W/m² | - |
| 1777551392 | 4.44° C | 99% | 1008.8 hPa | 0 mm | - | 38 W/m² | - |
| 1777551088 | 4.44° C | 99% | 1008.7 hPa | 0 mm | - | 27 W/m² | - |
| 1777550785 | 4.44° C | 99% | 1008.6 hPa | 0 mm | - | 77 W/m² | - |
| 1777550482 | 4.44° C | 99% | 1008.3 hPa | 0 mm | - | 31 W/m² | - |
| 1777550178 | 4.44° C | 99% | 1008.7 hPa | 0 mm | - | 32 W/m² | - |
| 1777549874 | 4.44° C | 99% | 1008.6 hPa | 0 mm | - | 22 W/m² | - |
| 1777549570 | 5° C | 99% | 1008.5 hPa | 0 mm | - | 22 W/m² | - |
| 1777549266 | 5° C | 99% | 1008.6 hPa | 0 mm | - | 18 W/m² | - |
| 1777548963 | 5° C | 99% | 1008.5 hPa | 0 mm | - | 18 W/m² | - |
| 1777548660 | 5° C | 99% | 1008.7 hPa | 0 mm | - | 14 W/m² | - |
| 1777548357 | 5° C | 99% | 1008.6 hPa | 0 mm | - | 14 W/m² | - |
| 1777548055 | 5° C | 99% | 1008.7 hPa | 0 mm | - | 9 W/m² | - |
| 1777547750 | 5° C | 99% | 1008.7 hPa | 0 mm | - | 7 W/m² | - |
| 1777547446 | 5° C | 99% | 1008.8 hPa | 0 mm | - | 6 W/m² | - |
| 1777547144 | 5° C | 99% | 1008.6 hPa | 0 mm | - | 5 W/m² | - |
| 1777546841 | 5° C | 99% | 1008.8 hPa | 0 mm | - | 5 W/m² | - |
* Rain latest hour (hover to see other rain measurements)
** Current wind speed in m/s (hover to see current wind gust speed)